Location: Caltech
(34.1382°N, 118.1253°W)
Time: 01:47:37
(UTC-07:00)

Iridium 95 - Visible Passes

Search period start: 26 May 2016 00:00
Search period end: 05 June 2016 00:00
Orbit: 776 x 779 km, 86.4° (Epoch: 25 May)

Date Brightness Start Highest point End Pass type
(mag) Time Alt. Az. Time Alt. Az. Time Alt. Az.
26 May 7.2 01:29:20 10° NNE 01:32:53 27° ENE 01:32:53 27° ENE visible
26 May 6.9 03:10:06 10° NNW 03:13:21 24° WNW 03:13:21 24° WNW visible
27 May 7.9 00:57:08 10° NE 00:59:20 14° ENE 00:59:20 14° ENE visible
27 May 6.3 02:35:59 10° NNW 02:39:48 41° NW 02:39:48 41° NW visible
28 May 6.2 02:02:19 10° N 02:06:15 52° N 02:06:15 52° N visible
29 May 6.8 01:29:03 10° NNE 01:32:43 36° NE 01:32:43 36° NE visible
29 May 7.4 03:10:55 10° NW 03:13:10 17° WNW 03:13:10 17° WNW visible
30 May 7.5 00:56:17 10° NNE 00:59:11 21° ENE 00:59:11 21° ENE visible
30 May 6.8 02:36:22 10° NNW 02:39:39 29° NW 02:39:39 29° NW visible
31 May 8.1 00:24:59 10° ENE 00:25:39 11° ENE 00:25:39 11° ENE visible
31 May 6.4 02:02:27 10° N 02:06:07 44° NNW 02:06:07 44° NNW visible
01 Jun 6.5 01:28:57 10° N 01:32:36 44° NNE 01:32:36 44° NNE visible
01 Jun 7.8 03:12:31 10° WNW 03:13:04 11° WNW 03:13:04 11° WNW visible
02 Jun 7.1 00:55:51 10° NNE 00:59:06 28° NE 00:59:06 28° NE visible
02 Jun 7.3 02:36:58 10° NNW 02:39:34 20° WNW 02:39:34 20° WNW visible
03 Jun 7.7 00:23:24 10° NE 00:25:35 16° ENE 00:25:35 16° ENE visible
03 Jun 6.7 02:02:44 10° NNW 02:06:03 34° NW 02:06:03 34° NW visible
04 Jun 6.5 01:28:59 10° N 01:32:34 45° N 01:32:34 45° N visible
